GW5579 Weather Reports


Display with metric or nautical units.
time (UTC)temp
F
wind
direction
speed
MPH
gust
MPH
rain 1hr
in
rain 24hr
in
rain mn
in
humidity
%
barometer
mb
20260506112730 69 152 5.0 8.0 0.00 0.00 0.00 53 1008.0
20260506112228 69 165 4.0 4.0 0.00 0.00 0.00 54 1008.0
20260506111725 69 143 2.0 9.0 0.00 0.00 0.00 54 1008.0
20260506111224 70 136 5.0 10.0 0.00 0.00 0.00 53 1008.0
20260506110720 69 138 0.0 4.0 0.00 0.00 0.00 56 1008.1
20260506110218 69 64 3.0 4.0 0.00 0.00 0.00 56 1008.3
20260506105714 69 343 4.0 4.0 0.00 0.00 0.00 57 1008.3
20260506105211 69 111 3.0 4.0 0.00 0.00 0.00 55 1008.4
20260506104709 68 79 2.0 3.0 0.00 0.00 0.00 57 1008.6
20260506104206 68 144 4.0 7.0 0.00 0.00 0.00 57 1008.5
20260506103703 68 147 3.0 7.0 0.00 0.00 0.00 57 1008.5
20260506103200 68 170 3.0 6.0 0.00 0.00 0.00 56 1008.6
20260506102658 68 129 6.0 9.0 0.00 0.00 0.00 57 1008.8
20260506102156 67 70 2.0 4.0 0.00 0.00 0.00 59 1008.8
20260506101652 67 134 4.0 8.0 0.00 0.00 0.00 59 1008.8
20260506101149 66 340 2.0 6.0 0.00 0.00 0.00 61 1008.9
20260506100648 66 62 7.0 9.0 0.00 0.00 0.00 60 1008.7
20260506100145 66 95 4.0 7.0 0.00 0.00 0.00 60 1008.8
20260506095644 65 193 4.0 6.0 0.00 0.00 0.00 61 1008.8
20260506095140 65 143 2.0 8.0 0.00 0.00 0.00 62 1009.0
20260506094637 65 155 5.0 6.0 0.00 0.00 0.00 61 1009.1
20260506094135 64 144 4.0 7.0 0.00 0.00 0.00 62 1009.0
20260506093634 64 56 3.0 7.0 0.00 0.00 0.00 62 1009.2
20260506093130 64 147 4.0 6.0 0.00 0.00 0.00 63 1009.0
20260506092628 64 139 6.0 10.0 0.00 0.00 0.00 62 1009.2
20260506092125 64 123 4.0 7.0 0.00 0.00 0.00 63 1009.2
20260506091623 65 170 4.0 10.0 0.00 0.00 0.00 62 1009.3
20260506091120 65 99 2.0 6.0 0.00 0.00 0.00 61 1009.2
20260506090618 64 61 3.0 6.0 0.00 0.00 0.00 61 1009.2
20260506090114 65 158 1.0 3.0 0.00 0.00 0.00 62 1009.4
20260506085611 64 131 4.0 6.0 0.00 0.00 0.00 62 1009.3
20260506085108 64 102 5.0 7.0 0.00 0.00 0.00 61 1009.3
20260506084604 65 153 2.0 6.0 0.00 0.00 0.00 60 1009.4
20260506084101 64 317 3.0 4.0 0.00 0.00 0.00 61 1009.4
20260506083558 63 150 6.0 7.0 0.00 0.00 0.00 62 1009.4
20260506083055 62 169 2.0 8.0 0.00 0.00 0.00 64 1009.6
20260506082552 62 136 9.0 11.0 0.00 0.00 0.00 63 1009.3
20260506082047 62 141 5.0 7.0 0.00 0.00 0.00 64 1009.7
20260506081546 61 127 12.0 15.0 0.00 0.00 0.00 65 1009.6
20260506081043 61 144 7.0 8.0 0.00 0.00 0.00 63 1009.7
20260506080541 62 103 3.0 11.0 0.00 0.00 0.00 64 1009.7
20260506073524 61 182 1.0 10.0 0.00 0.00 0.00 62 1009.6
20260506073021 61 126 1.0 6.0 0.00 0.00 0.00 62 1009.7
20260506072518 60 145 2.0 6.0 0.00 0.00 0.00 65 1009.7
20260506072016 61 168 4.0 8.0 0.00 0.00 0.00 63 1009.5
20260506071514 60 66 1.0 4.0 0.00 0.00 0.00 65 1009.6
20260506071010 60 23 6.0 11.0 0.00 0.00 0.00 65 1009.7
20260506070508 59 335 7.0 10.0 0.00 0.00 0.00 65 1009.9
20260506062445 58 139 4.0 6.0 0.00 0.00 0.00 68 1010.1
20260506061941 58 149 2.0 4.0 0.00 0.00 0.00 69 1010.2
20260506061437 57 151 2.0 3.0 0.00 0.00 0.00 71 1010.1
20260506060936 57 174 2.0 4.0 0.00 0.00 0.00 73 1010.4
20260506060434 57 133 2.0 6.0 0.00 0.00 0.00 71 1010.3
20260506051405 54 97 2.0 7.0 0.00 0.00 0.00 77 1010.7
20260506050902 53 149 1.0 2.0 0.00 0.00 0.00 79 1010.9
20260506050400 53 137 1.0 3.0 0.00 0.00 0.00 79 1010.7
20260506044850 53 144 0.0 3.0 0.00 0.00 0.00 80 1010.8
20260506044348 53 69 2.0 3.0 0.00 0.00 0.00 80 1010.8
20260506043845 53 159 0.0 2.0 0.00 0.00 0.00 81 1010.8
20260506043342 52 160 1.0 2.0 0.00 0.00 0.00 81 1010.8
20260506042841 52 355 3.0 6.0 0.00 0.00 0.00 82 1010.8
20260506042339 52 353 4.0 8.0 0.00 0.00 0.00 82 1010.8
20260506041838 52 185 2.0 6.0 0.00 0.00 0.00 82 1010.9
20260506041334 52 165 1.0 7.0 0.00 0.00 0.00 84 1010.8
20260506040831 52 113 3.0 4.0 0.00 0.00 0.00 84 1010.8
20260506040329 52 125 4.0 6.0 0.00 0.00 0.00 85 1010.8
20260506035825 51 105 1.0 3.0 0.00 0.00 0.00 86 1010.9
20260506035323 51 47 2.0 4.0 0.00 0.00 0.00 87 1010.8
20260506034820 50 65 1.0 3.0 0.00 0.00 0.00 88 1010.8
20260506034317 50 351 3.0 4.0 0.00 0.00 0.00 89 1010.6
20260506033814 50 145 1.0 4.0 0.00 0.00 0.00 89 1010.7
20260506033311 50 109 2.0 4.0 0.00 0.00 0.00 90 1010.6
20260506032807 49 0 2.0 4.0 0.00 0.00 0.00 90 1010.6
20260506032306 49 347 4.0 7.0 0.00 0.00 0.00 91 1010.5
20260506031801 49 114 1.0 4.0 0.00 0.00 0.00 91 1010.6
20260506031258 49 83 3.0 4.0 0.00 0.00 0.00 91 1010.4
20260506030756 49 354 4.0 6.0 0.00 0.00 0.00 91 1010.5
20260506030254 49 117 3.0 3.0 0.00 0.00 0.00 90 1010.7
20260506025751 49 113 2.0 4.0 0.00 0.00 0.00 90 1010.4
20260506025247 49 192 2.0 6.0 0.00 0.00 0.00 90 1010.4
20260506024744 49 131 2.0 6.0 0.00 0.00 0.00 91 1010.4
20260506024240 49 160 1.0 3.0 0.00 0.00 0.00 90 1010.4
20260506023736 49 54 2.0 2.0 0.00 0.00 0.00 90 1010.4
20260506023234 49 77 2.0 4.0 0.00 0.00 0.00 90 1010.5
20260506022730 49 26 3.0 4.0 0.00 0.00 0.00 91 1010.5
20260506022228 49 143 1.0 4.0 0.00 0.00 0.00 91 1010.4
20260506021726 48 90 0.0 1.0 0.00 0.00 0.00 90 1010.3
20260506021223 49 136 1.0 2.0 0.00 0.00 0.00 89 1010.3
20260506020720 49 226 2.0 2.0 0.00 0.00 0.00 89 1010.1
20260506020218 49 19 3.0 3.0 0.00 0.00 0.00 89 1010.2
20260506015715 49 15 3.0 4.0 0.00 0.00 0.00 89 1010.3
20260506015213 49 142 0.0 2.0 0.00 0.00 0.00 89 1010.1
20260506014709 49 345 2.0 3.0 0.00 0.00 0.00 89 1010.2
20260506014205 48 322 2.0 4.0 0.00 0.00 0.00 89 1010.2
20260506013703 48 82 2.0 3.0 0.00 0.00 0.00 89 1010.2
20260506013200 48 144 1.0 1.0 0.00 0.00 0.00 89 1010.1
20260506012656 48 173 0.0 1.0 0.00 0.00 0.00 88 1010.2
20260506012153 49 126 1.0 1.0 0.00 0.00 0.00 88 1010.3
20260506011651 48 123 1.0 2.0 0.00 0.00 0.00 89 1010.2
20260506011147 49 160 0.0 0.0 0.00 0.00 0.00 87 1010.2
20260506010645 49 137 1.0 1.0 0.00 0.00 0.00 87 1010.2
20260506010142 49 89 2.0 2.0 0.00 0.00 0.00 87 1010.6
20260506005639 49 71 2.0 4.0 0.00 0.00 0.00 88 1010.4
20260506005136 49 165 0.0 0.0 0.00 0.00 0.00 87 1010.4
20260506004632 49 155 0.0 0.0 0.00 0.00 0.00 86 1010.3
20260506004130 49 99 1.0 2.0 0.00 0.00 0.00 86 1010.4
20260506003626 49 147 1.0 1.0 0.00 0.00 0.00 86 1010.3
20260506003122 49 170 0.0 1.0 0.00 0.00 0.00 86 1010.3
20260506002618 49 163 0.0 0.0 0.00 0.00 0.00 85 1010.6
20260506002114 50 159 0.0 0.0 0.00 0.00 0.00 84 1010.6
20260506001610 50 165 0.0 0.0 0.00 0.00 0.00 83 1010.6
20260506001107 50 110 1.0 2.0 0.00 0.00 0.00 84 1010.3
20260506000605 50 134 1.0 1.0 0.00 0.00 0.00 82 1010.4
20260505235600 51 169 0.0 1.0 0.00 0.00 0.00 80 1010.6
20260505235057 51 156 0.0 2.0 0.00 0.00 0.00 81 1010.5
20260505234554 51 142 0.0 2.0 0.00 0.00 0.00 80 1010.5
20260505234050 51 0 4.0 6.0 0.00 0.00 0.00 79 1010.4
20260505233548 52 145 1.0 2.0 0.00 0.00 0.00 79 1010.4
20260505233045 52 35 2.0 3.0 0.00 0.00 0.00 79 1010.4
20260505232543 52 125 1.0 1.0 0.00 0.00 0.00 79 1010.2
20260505232040 52 146 0.0 1.0 0.00 0.00 0.00 78 1010.0
20260505231537 52 106 1.0 2.0 0.00 0.00 0.00 77 1010.2
20260505231036 53 151 0.0 2.0 0.00 0.00 0.00 77 1010.3
20260505230533 53 77 2.0 4.0 0.00 0.00 0.00 76 1010.5
20260505230029 53 33 4.0 4.0 0.00 0.00 0.00 76 1010.5
20260505225526 53 156 1.0 3.0 0.00 0.00 0.00 77 1010.5
20260505225022 53 129 1.0 2.0 0.00 0.00 0.00 76 1010.5
20260505224519 53 129 1.0 1.0 0.00 0.00 0.00 76 1010.6
20260505224016 53 0 2.0 3.0 0.00 0.00 0.00 75 1010.6
20260505223513 54 114 1.0 3.0 0.00 0.00 0.00 75 1010.3
20260505223010 54 130 0.0 2.0 0.00 0.00 0.00 74 1010.5
20260505222506 54 160 1.0 1.0 0.00 0.00 0.00 73 1010.8
20260505222001 54 158 1.0 2.0 0.00 0.00 0.00 73 1010.7
20260505221459 54 203 1.0 2.0 0.00 0.00 0.00 72 1010.7
20260505220956 55 22 3.0 3.0 0.00 0.00 0.00 72 1010.7
20260505220453 55 62 3.0 3.0 0.00 0.00 0.00 71 1010.9
20260505215951 55 78 2.0 4.0 0.00 0.00 0.00 71 1010.9
20260505215449 55 85 1.0 3.0 0.00 0.00 0.00 71 1010.9
20260505214946 55 45 3.0 7.0 0.00 0.00 0.00 70 1010.7
20260505214444 55 15 2.0 4.0 0.00 0.00 0.00 70 1010.7
20260505213941 56 127 1.0 8.0 0.00 0.00 0.00 70 1010.7
20260505213439 56 63 2.0 4.0 0.00 0.00 0.00 72 1010.7
20260505212935 56 342 2.0 7.0 0.00 0.00 0.00 71 1010.5
20260505212432 56 351 2.0 3.0 0.00 0.00 0.00 72 1010.5
20260505211928 56 26 3.0 4.0 0.00 0.00 0.00 74 1010.4
20260505211426 56 281 1.0 3.0 0.00 0.00 0.00 74 1010.4
20260505210922 56 351 5.0 7.0 0.00 0.00 0.00 73 1010.6
20260505210419 56 297 3.0 9.0 0.00 0.00 0.00 74 1010.6
20260505205916 56 57 4.0 4.0 0.00 0.13 0.13 74 1010.7
20260505205414 57 22 4.0 6.0 0.00 0.13 0.13 76 1010.3
20260505204911 57 33 5.0 6.0 0.00 0.13 0.13 77 1010.2
20260505204409 57 37 4.0 8.0 0.00 0.13 0.13 77 1010.3
20260505203906 57 245 2.0 6.0 0.00 0.13 0.13 78 1010.2
20260505203402 57 82 2.0 8.0 0.00 0.13 0.13 78 1010.3
20260505202858 57 358 2.0 6.0 0.00 0.13 0.13 79 1010.4
20260505202355 58 39 4.0 6.0 0.00 0.13 0.13 78 1010.4
20260505201851 58 19 6.0 9.0 0.00 0.13 0.13 78 1010.3
20260505201349 58 77 2.0 6.0 0.00 0.13 0.13 80 1010.3
20260505200847 58 34 5.0 9.0 0.00 0.13 0.13 80 1010.2
20260505200343 58 18 4.0 7.0 0.00 0.13 0.13 81 1010.1
20260505195839 58 18 4.0 6.0 0.00 0.13 0.13 82 1010.1
20260505195336 58 110 2.0 3.0 0.00 0.13 0.13 85 1010.1
20260505194833 58 78 2.0 3.0 0.00 0.13 0.13 84 1010.1
20260505194331 58 145 1.0 2.0 0.00 0.13 0.13 85 1009.9
20260505193826 58 139 1.0 2.0 0.00 0.13 0.13 84 1009.9
20260505193324 59 53 1.0 1.0 0.00 0.13 0.13 84 1010.0
20260505192822 59 153 0.0 2.0 0.00 0.13 0.13 83 1009.9
20260505192320 59 188 1.0 2.0 0.00 0.13 0.13 84 1009.8
20260505191817 58 336 3.0 3.0 0.00 0.13 0.13 84 1009.8
20260505191316 58 143 0.0 1.0 0.00 0.13 0.13 85 1009.7
20260505190812 59 156 0.0 2.0 0.00 0.13 0.13 86 1009.6
20260505190307 59 155 0.0 2.0 0.00 0.13 0.13 85 1009.8
20260505185803 59 76 1.0 1.0 0.00 0.13 0.13 86 1009.7
20260505185300 59 153 0.0 1.0 0.00 0.13 0.13 86 1009.6
20260505184756 59 347 2.0 4.0 0.00 0.13 0.13 86 1009.8
20260505184253 59 99 2.0 4.0 0.00 0.13 0.13 86 1009.6
20260505183750 59 17 5.0 7.0 0.00 0.13 0.13 86 1009.6
20260505183248 59 110 1.0 3.0 0.00 0.13 0.13 86 1009.6
20260505182744 59 23 3.0 6.0 0.00 0.13 0.13 86 1009.6
20260505182241 60 19 5.0 6.0 0.00 0.13 0.13 87 1010.1
20260505181737 60 152 1.0 3.0 0.00 0.13 0.13 88 1009.9
20260505181235 60 50 2.0 3.0 0.00 0.13 0.13 88 1009.8
20260505180731 60 61 2.0 4.0 0.00 0.13 0.13 87 1009.4
20260505180228 60 254 2.0 4.0 0.00 0.13 0.13 87 1009.5
20260505175724 60 23 4.0 4.0 0.00 0.13 0.13 86 1009.2
20260505175221 61 5 2.0 2.0 0.00 0.13 0.13 86 1009.3
20260505174717 61 326 2.0 3.0 0.00 0.13 0.13 86 1009.5
20260505174214 61 10 2.0 3.0 0.00 0.13 0.13 85 1009.6
20260505173710 61 161 1.0 1.0 0.00 0.13 0.13 85 1009.3
20260505173207 61 157 0.0 0.0 0.00 0.13 0.13 84 1009.4
20260505172704 61 164 0.0 1.0 0.00 0.13 0.13 84 1009.5
20260505172201 61 24 2.0 3.0 0.00 0.13 0.13 84 1009.4
20260505171701 61 148 1.0 2.0 0.00 0.13 0.13 85 1009.5
20260505171158 61 116 1.0 2.0 0.00 0.13 0.13 85 1009.5
20260505170655 61 144 1.0 1.0 0.00 0.13 0.13 84 1009.7
20260505170152 61 168 0.0 0.0 0.00 0.13 0.13 85 1009.5
20260505165652 61 148 1.0 1.0 0.00 0.13 0.13 85 1009.4
20260505165148 61 140 0.0 1.0 0.00 0.13 0.13 84 1009.9
20260505164644 61 108 2.0 2.0 0.00 0.13 0.13 84 1009.7
20260505164141 61 156 0.0 1.0 0.00 0.13 0.13 83 1009.7
20260505163639 62 146 0.0 1.0 0.00 0.13 0.13 82 1009.9
20260505163137 62 103 1.0 1.0 0.00 0.13 0.13 81 1010.1
20260505162634 62 195 1.0 1.0 0.00 0.13 0.13 79 1009.7
20260505162132 62 162 0.0 0.0 0.00 0.13 0.13 79 1009.8
20260505161629 63 48 2.0 2.0 0.00 0.13 0.13 77 1010.0
20260505161126 63 149 0.0 1.0 0.00 0.13 0.13 77 1010.1
20260505160624 63 155 0.0 1.0 0.00 0.13 0.13 77 1010.1
20260505160121 63 157 0.0 0.0 0.00 0.13 0.13 76 1010.1
20260505153100 65 164 1.0 2.0 0.00 0.13 0.13 71 1010.5
20260505152557 65 148 1.0 2.0 0.00 0.13 0.13 70 1010.4
20260505152053 66 48 3.0 4.0 0.00 0.13 0.13 69 1010.5
20260505151548 66 58 5.0 8.0 0.00 0.13 0.13 67 1010.4
20260505151046 66 37 6.0 9.0 0.00 0.13 0.13 67 1010.4
20260505150542 66 23 4.0 8.0 0.00 0.13 0.13 65 1010.4
20260505140507 68 306 1.0 3.0 0.00 0.13 0.13 62 1010.2
20260505124920 73 184 1.0 3.0 0.00 0.13 0.13 53 1010.8
20260505124417 73 190 1.0 6.0 0.00 0.13 0.13 52 1010.7
20260505123913 73 168 4.0 4.0 0.00 0.13 0.13 53 1010.8
20260505123410 72 173 1.0 4.0 0.00 0.13 0.13 54 1010.8
20260505122906 72 203 1.0 4.0 0.00 0.13 0.13 53 1010.8
20260505122403 71 202 1.0 2.0 0.00 0.13 0.13 54 1010.8
20260505121900 71 157 1.0 4.0 0.00 0.13 0.13 56 1010.9
20260505121357 71 175 2.0 3.0 0.00 0.13 0.13 55 1010.9
20260505120853 71 151 0.0 4.0 0.00 0.13 0.13 55 1011.0
20260505120349 71 128 2.0 3.0 0.00 0.13 0.13 54 1011.0
20260505115848 70 172 4.0 4.0 0.00 0.13 0.13 55 1010.9
20260505115345 71 148 3.0 4.0 0.00 0.13 0.13 56 1011.1
20260505114843 71 177 5.0 6.0 0.00 0.13 0.13 56 1011.2
20260505114339 71 152 1.0 2.0 0.00 0.13 0.13 54 1011.4
20260505113836 72 234 4.0 7.0 0.00 0.13 0.13 54 1011.0
20260505113332 71 278 3.0 8.0 0.00 0.13 0.13 53 1011.4